Ankeny, IA

9:04 AM CDT on May 24, 2017 (GMT -0500)
Ankeny Regional

Weather History for KIKV - May, 2014

Change the Weather History Date:

Monday, May 12, 2014

  Actual Average (KDSM) Record (KDSM)
Temperature  
Mean Temperature 60 °F -  
Max Temperature 69 °F 70 °F 94 °F (1956)
Min Temperature 50 °F 49 °F 32 °F (1946)
Degree Days  
Heating Degree Days 6    
Growing Degree Days 10 (Base 50)    
Moisture  
Dew Point 54 °F    
Average Humidity 88    
Maximum Humidity 100    
Minimum Humidity 76    
Precipitation  
Precipitation 0.03 in - - ()
Sea Level Pressure  
Sea Level Pressure 29.83 in    
Wind  
Wind Speed 12 mph (WNW)    
Max Wind Speed 22 mph    
Max Gust Speed 29 mph    
Visibility 9 miles    
Events Rain    
Averages and records for this station are not official NWS values.
T = Trace of Precipitation, MM = Missing Value Source: NWS Daily Summary

Daily Weather History Graph

Daily Weather History Graph

Search for Another Location

Airport or City:

Trip Planner

Search our weather history database for the weather conditions in past years. The results will help you decide how hot, cold, wet, or windy it might be!

Date:

Astronomy

May. 12, 2014 Rise Set
Actual Time 5:57 AM CDT 8:24 PM CDT
Civil Twilight 5:26 AM CDT 8:55 PM CDT
Nautical Twilight 4:47 AM CDT 9:34 PM CDT
Astronomical Twilight 4:03 AM CDT 10:18 PM CDT
Moon 6:21 PM CDT (5/12) 4:39 AM CDT (5/12)
Length of Visible Light 15h 29m
Length of Day
14h 26m
Waxing Gibbous, 95% of the Moon is Illuminated
May 12
Waxing Gibbous
May 14
Full
May 21
Last Quarter
May 28
New
Jun 5
First Quarter

Hourly Weather History & Observations

Time (CDT) Temp. Dew Point Humidity Pressure Visibility Wind Dir Wind Speed Gust Speed Precip Events Conditions
2:55 PM 68.0 °F 66.2 °F 94% 29.72 in 10.0 mi SSE 6.9 mph - 0.01 in   Overcast
3:15 PM 68.0 °F 68.0 °F 100% 29.72 in 10.0 mi SSE 5.8 mph - N/A   Overcast
3:35 PM 68.0 °F 68.0 °F 100% 29.72 in 10.0 mi South 6.9 mph - N/A   Mostly Cloudy
3:55 PM 69.8 °F 68.0 °F 94% 29.72 in 10.0 mi South 6.9 mph - N/A   Overcast
4:15 PM 69.8 °F 68.0 °F 94% 29.72 in 10.0 mi South 6.9 mph - N/A   Overcast
4:35 PM 69.8 °F 68.0 °F 94% 29.72 in 5.0 mi South 11.5 mph - N/A   Overcast
4:55 PM 62.6 °F 60.8 °F 94% 29.74 in 1.5 mi West 18.4 mph 25.3 mph 0.01 in Rain Light Rain
5:15 PM 59.0 °F 57.2 °F 94% 29.76 in 4.0 mi WNW 20.7 mph - N/A   Overcast
5:35 PM 57.2 °F 55.4 °F 94% 29.77 in 10.0 mi WNW 17.3 mph - N/A   Overcast
5:55 PM 57.2 °F 55.4 °F 94% 29.79 in 10.0 mi WNW 16.1 mph 26.5 mph N/A   Overcast
6:15 PM 55.4 °F 53.6 °F 94% 29.81 in 10.0 mi West 12.7 mph 23.0 mph N/A   Overcast
6:35 PM 55.4 °F 51.8 °F 88% 29.81 in 10.0 mi WNW 17.3 mph 25.3 mph N/A   Overcast
6:55 PM 55.4 °F 51.8 °F 88% 29.81 in 10.0 mi WNW 18.4 mph 25.3 mph 0.01 in   Overcast
7:15 PM 55.4 °F 50.0 °F 82% 29.81 in 10.0 mi WNW 15.0 mph 23.0 mph N/A   Overcast
7:35 PM 53.6 °F 50.0 °F 88% 29.80 in 10.0 mi WNW 17.3 mph 28.8 mph N/A   Overcast
7:55 PM 53.6 °F 50.0 °F 88% 29.81 in 10.0 mi NW 21.9 mph - N/A   Overcast
8:15 PM 53.6 °F 50.0 °F 88% 29.84 in 10.0 mi NW 11.5 mph 21.9 mph N/A   Overcast
8:35 PM 53.6 °F 48.2 °F 82% 29.86 in 10.0 mi NW 11.5 mph 21.9 mph N/A   Overcast
8:55 PM 53.6 °F 48.2 °F 82% 29.88 in 10.0 mi NW 15.0 mph 23.0 mph N/A   Overcast
9:15 PM 51.8 °F 46.4 °F 82% 29.90 in 10.0 mi NW 15.0 mph 21.9 mph N/A   Overcast
9:35 PM 51.8 °F 46.4 °F 82% 29.91 in 10.0 mi NW 17.3 mph 27.6 mph N/A   Overcast
9:55 PM 51.8 °F 46.4 °F 82% 29.92 in 10.0 mi NW 13.8 mph 21.9 mph N/A   Overcast
10:15 PM 51.8 °F 46.4 °F 82% 29.93 in 10.0 mi NW 16.1 mph - N/A   Overcast
10:35 PM 51.8 °F 44.6 °F 76% 29.95 in 10.0 mi NW 16.1 mph - N/A   Overcast
10:55 PM 51.8 °F 44.6 °F 76% 29.95 in 10.0 mi NW 15.0 mph 23.0 mph N/A   Overcast
11:15 PM 50.0 °F 46.4 °F 87% 29.95 in 10.0 mi WNW 12.7 mph 20.7 mph N/A   Overcast
11:35 PM 50.0 °F 46.4 °F 87% 29.95 in 10.0 mi NW 11.5 mph 19.6 mph N/A   Overcast
11:55 PM 50.0 °F 44.6 °F 82% 29.94 in 10.0 mi NW 9.2 mph 17.3 mph N/A   Overcast